STARLINK-4209, 52855

Orbit data source: Space-Track

STARLINK-4209, 52855 is a payload satellite owned by SpaceX/Seattle (US) in LEO that was launched on Fri, 17 Jun 2022 UTC via an FALCON 9 launch vehicle from the Air Force Eastern Test Range (AFETR). Payload-class satellites include a variety of spacecraft equipped with specific instruments for various scientific and technological missions. These include communications satellites like Starlink; space stations such as the ISS; scientific satellites like the Hubble; Earth observation satellites from companies like Planet Labs, Umbra, and HawkEye 360; GPS; miniature CubeSats for education and research; and military/defense satellites.

Loading next visibility...
Identifier
52855, 2022-062AB
Orbit
LEO
Country
Flag of USUS
Related business
Manufacturer
SpaceX/Seattle
Mission
Operational Commercial Communications
Bus & Motor
STARLINK, Unknown motor
Mass
297 kg wet, ~275 kg dry
Launch date (UTC)
2022-06-17 (4 years ago)
Launch vehicle
FALCON 9
Launch site
Air Force Eastern Test Range (AFETR)
Object type
Payload
Rocket body
Debris
Shape & HBR
Box + 1 Pan, 10.1 m
Radar Cross Section
13.562 m², Large (>1 m²)

Expand to show TLE details & history
Last TLE update: 3 days ago

TLE from 3 days ago
0 STARLINK-4209
1 52855U 22062AB  26170.69817820  .00000126  00000-0  26004-4 0  9999
2 52855  53.1607 286.0738 0001197  69.0255 291.0864 15.08831717221329
Epoch: 2026-06-19T16:45Z
TLE epoch observation values (Epoch: 2026-06-19T16:45:22.596Z)
Latitude
-0.00006°
Longitude
126.80619°
Altitude
540.362 km
Speed
7.594 km/s
True Right ascension
19h 04m 17s
True Declination
0° 00' 00"
Sunlit
Object was in full shadow at epoch
Visualization orbit readout
Latitude
Unknown
Longitude
Unknown
Altitude
Unknown
Speed
Unknown
Apparent Right ascension
Unknown
Apparent Declination
Unknown
Sunlit
N/A
Visualization observer readout
Local Sidereal Time
21:35:39
Azimuth
Unknown
Elevation
Unknown
Doppler factor
Unknown
Orbital elements
Apogee altitude
540.851 km
Perigee altitude
539.195 km
Semi-major axis
6,918.16 km
Eccentricity
0.00012
Inclination
53.1607°
RAAN
286.0738°
Arg. of periapsis
69.0255°
True anomaly
291.0736°
Mean anomaly
291.0864°
Eccentric anomaly
291.08°
Mean motion
3.77188 °/min
Orbital period
95.44 mins
BSTAR
0.000026004
Loading maneuver chart data...
Computing Atmospheric mass density...
Loading historical data...
Loading historical data...
Loading historical data...
Loading historical data...
Loading historical data...
Loading historical data...
Loading historical data...

Documentation

Showing up to 5 results
|